Faribault, MN

7:10 AM CDT on April 21, 2018 (GMT -0500)
Faribault Municipal

Weather History for KFBL - April, 2013

Change the Weather History Date:

Friday, April 12, 2013

  Actual Average Record
Temperature  
Mean Temperature 32 °F -  
Max Temperature 35 °F 54 °F 87 °F (1997)
Min Temperature 28 °F 33 °F 15 °F (1992)
Degree Days  
Heating Degree Days 34    
Moisture  
Dew Point 29 °F    
Average Humidity 93    
Maximum Humidity 100    
Minimum Humidity 75    
Precipitation  
Precipitation 0.00 in - - ()
Sea Level Pressure  
Sea Level Pressure 29.73 in    
Wind  
Wind Speed 9 mph (NW)    
Max Wind Speed 15 mph    
Max Gust Speed 20 mph    
Visibility 7 miles    
Events      
Averages and records for this station are not official NWS values.
T = Trace of Precipitation, MM = Missing Value Source: NWS Daily Summary

Daily Weather History Graph

Daily Weather History Graph

Search for Another Location

Airport or City:

Astronomy

Apr. 12, 2013 Rise Set
Actual Time 6:34 AM CDT 7:54 PM CDT
Civil Twilight 6:04 AM CDT 8:24 PM CDT
Nautical Twilight 5:28 AM CDT 9:00 PM CDT
Astronomical Twilight 4:49 AM CDT 9:39 PM CDT
Moon 7:39 AM CDT (4/12) 10:31 PM CDT (4/12)
Length of Visible Light 14h 20m
Length of Day
13h 20m
Waxing Crescent, 5% of the Moon is Illuminated
Apr 12
Waxing Crescent
Apr 18
First Quarter
Apr 25
Full
May 2
Last Quarter
May 9
New

Hourly Weather History & Observations

Time (CDT) Temp. Windchill Dew Point Humidity Pressure Visibility Wind Dir Wind Speed Gust Speed Precip Events Conditions
12:01 AM 28.4 °F 19.7 °F 28.4 °F 100% 29.65 in 5.0 mi NNE 9.2 mph - N/A   Overcast
12:21 AM 28.4 °F 20.4 °F 28.4 °F 100% 29.65 in 4.0 mi North 8.1 mph - N/A   Overcast
12:41 AM 28.4 °F 19.7 °F 28.4 °F 100% 29.65 in 2.0 mi NNE 9.2 mph 16.1 mph N/A   Overcast
1:01 AM 28.4 °F 19.7 °F 28.4 °F 100% 29.65 in 4.0 mi NNE 9.2 mph - N/A   Overcast
1:41 AM 28.4 °F 19.7 °F 28.4 °F 100% 29.65 in 2.5 mi North 9.2 mph - N/A   Overcast
2:01 AM 28.4 °F 19.7 °F 28.4 °F 100% 29.65 in 2.5 mi North 9.2 mph - N/A   Overcast
2:41 AM 28.4 °F 20.4 °F 28.4 °F 100% 29.64 in 3.0 mi North 8.1 mph - N/A   Overcast
3:01 AM 28.4 °F 22.2 °F 28.4 °F 100% 29.64 in 3.0 mi North 5.8 mph - N/A   Overcast
3:21 AM 28.4 °F 21.2 °F 28.4 °F 100% 29.64 in 4.0 mi North 6.9 mph - N/A   Overcast
3:41 AM 28.4 °F 20.4 °F 28.4 °F 100% 29.64 in 5.0 mi North 8.1 mph - N/A   Overcast
4:01 AM 28.4 °F 21.2 °F 28.4 °F 100% 29.64 in 7.0 mi North 6.9 mph - N/A   Overcast
4:21 AM 28.4 °F 20.4 °F 28.4 °F 100% 29.65 in 7.0 mi North 8.1 mph - N/A   Overcast
4:41 AM 28.4 °F 22.2 °F 28.4 °F 100% 29.65 in 7.0 mi North 5.8 mph - N/A   Overcast
5:01 AM 28.4 °F 21.2 °F 28.4 °F 100% 29.65 in 7.0 mi North 6.9 mph - N/A   Overcast
5:21 AM 28.4 °F 21.2 °F 28.4 °F 100% 29.65 in 10.0 mi NNW 6.9 mph - N/A   Overcast
5:41 AM 28.4 °F 21.2 °F 28.4 °F 100% 29.65 in 10.0 mi NNW 6.9 mph - N/A   Overcast
6:01 AM 28.4 °F 22.2 °F 28.4 °F 100% 29.65 in 10.0 mi NNW 5.8 mph - N/A   Overcast
6:21 AM 28.4 °F 22.2 °F 28.4 °F 100% 29.65 in 7.0 mi NNW 5.8 mph - N/A   Overcast
7:01 AM 28.4 °F 21.2 °F 28.4 °F 100% 29.66 in 10.0 mi NW 6.9 mph - N/A   Overcast
7:21 AM 28.4 °F 22.2 °F 26.6 °F 93% 29.67 in 4.0 mi NNW 5.8 mph - N/A   Overcast
8:01 AM 28.4 °F 22.2 °F 26.6 °F 93% 29.67 in 7.0 mi NNW 5.8 mph - N/A   Mostly Cloudy
8:41 AM 28.4 °F 23.3 °F 28.4 °F 100% 29.68 in 2.0 mi NW 4.6 mph - N/A   Overcast
9:01 AM 28.4 °F 21.2 °F 28.4 °F 100% 29.68 in 2.0 mi NW 6.9 mph - N/A   Overcast
10:01 AM 30.2 °F 23.4 °F 28.4 °F 93% 29.70 in 10.0 mi WNW 6.9 mph - N/A   Overcast
10:21 AM 30.2 °F 23.4 °F 28.4 °F 93% 29.70 in 10.0 mi WNW 6.9 mph - N/A   Overcast
10:41 AM 30.2 °F 23.4 °F 28.4 °F 93% 29.70 in 10.0 mi WNW 6.9 mph - N/A   Overcast
11:01 AM 30.2 °F 22.6 °F 28.4 °F 93% 29.70 in 10.0 mi WNW 8.1 mph - N/A   Overcast
11:41 AM 30.2 °F 21.9 °F 28.4 °F 93% 29.71 in 10.0 mi WNW 9.2 mph - N/A   Overcast
12:01 PM 30.2 °F 21.3 °F 28.4 °F 93% 29.72 in 10.0 mi West 10.4 mph - N/A   Overcast
12:21 PM 32.0 °F 22.5 °F 28.4 °F 87% 29.72 in 10.0 mi WNW 12.7 mph 17.3 mph N/A   Overcast
12:41 PM 30.2 °F 20.2 °F 26.6 °F 86% 29.72 in 10.0 mi West 12.7 mph - N/A   Overcast
1:01 PM 32.0 °F 23.6 °F 28.4 °F 87% 29.73 in 10.0 mi West 10.4 mph - N/A   Overcast
1:21 PM 32.0 °F 23.0 °F 28.4 °F 87% 29.74 in 3.0 mi West 11.5 mph - N/A   Overcast
1:41 PM 32.0 °F 22.1 °F 28.4 °F 87% 29.74 in 1.8 mi West 13.8 mph - N/A   Overcast
2:01 PM 33.8 °F 24.8 °F 28.4 °F 81% 29.74 in 1.8 mi West 12.7 mph - N/A   Overcast
2:21 PM 33.8 °F 23.9 °F 28.4 °F 81% 29.75 in 1.8 mi West 15.0 mph 19.6 mph N/A   Overcast
2:41 PM 33.8 °F 23.9 °F 28.4 °F 81% 29.75 in 2.5 mi West 15.0 mph - N/A   Overcast
3:01 PM 33.8 °F 25.3 °F 28.4 °F 81% 29.75 in 10.0 mi WNW 11.5 mph - N/A   Overcast
3:21 PM 33.8 °F 25.8 °F 28.4 °F 81% 29.75 in 10.0 mi West 10.4 mph - N/A   Overcast
3:41 PM 33.8 °F 25.8 °F 28.4 °F 81% 29.75 in 10.0 mi West 10.4 mph - N/A   Overcast
4:01 PM 35.6 °F 27.1 °F 28.4 °F 75% 29.75 in 10.0 mi WNW 12.7 mph - N/A   Overcast
4:21 PM 35.6 °F 27.1 °F 28.4 °F 75% 29.76 in 10.0 mi West 12.7 mph - N/A   Overcast
4:41 PM 33.8 °F 24.3 °F 28.4 °F 81% 29.76 in 7.0 mi WNW 13.8 mph 18.4 mph N/A   Overcast
5:01 PM 33.8 °F 24.8 °F 28.4 °F 81% 29.77 in 4.0 mi WNW 12.7 mph - N/A   Overcast
5:21 PM 33.8 °F 25.3 °F 30.2 °F 87% 29.78 in 3.0 mi West 11.5 mph - N/A   Overcast
5:41 PM 33.8 °F 25.3 °F 30.2 °F 87% 29.78 in 10.0 mi West 11.5 mph - N/A   Overcast
6:01 PM 33.8 °F 24.8 °F 30.2 °F 87% 29.79 in 10.0 mi West 12.7 mph - N/A   Overcast
6:21 PM 33.8 °F 24.8 °F 28.4 °F 81% 29.79 in 10.0 mi West 12.7 mph - N/A   Overcast
6:41 PM 33.8 °F 25.8 °F 28.4 °F 81% 29.80 in 7.0 mi West 10.4 mph 17.3 mph N/A   Overcast
7:01 PM 33.8 °F 27.0 °F 28.4 °F 81% 29.80 in 10.0 mi West 8.1 mph - N/A   Overcast
7:21 PM 32.0 °F 26.4 °F 28.4 °F 87% 29.80 in 5.0 mi West 5.8 mph - N/A   Overcast
7:41 PM 32.0 °F 24.8 °F 30.2 °F 93% 29.80 in 4.0 mi West 8.1 mph - N/A   Overcast
8:01 PM 30.2 °F 21.3 °F 30.2 °F 100% 29.81 in 4.0 mi West 10.4 mph - N/A   Overcast
8:41 PM 30.2 °F 21.9 °F 30.2 °F 100% 29.81 in 5.0 mi West 9.2 mph - N/A   Overcast
9:01 PM 30.2 °F 20.8 °F 30.2 °F 100% 29.82 in 5.0 mi West 11.5 mph - N/A   Mostly Cloudy
9:21 PM 30.2 °F 22.6 °F 30.2 °F 100% 29.82 in 4.0 mi West 8.1 mph - N/A   Overcast
9:41 PM 30.2 °F 22.6 °F 30.2 °F 100% 29.83 in 4.0 mi West 8.1 mph - N/A   Overcast
10:01 PM 30.2 °F 21.9 °F 30.2 °F 100% 29.83 in 7.0 mi WNW 9.2 mph - N/A   Overcast
10:21 PM 30.2 °F 25.4 °F 30.2 °F 100% 29.83 in 2.0 mi NW 4.6 mph - N/A   Overcast
10:41 PM 30.2 °F 22.6 °F 28.4 °F 93% 29.83 in 10.0 mi NW 8.1 mph - N/A   Overcast
11:01 PM 30.2 °F 24.3 °F 28.4 °F 93% 29.83 in 10.0 mi WNW 5.8 mph - N/A   Overcast
11:21 PM 30.2 °F 24.3 °F 28.4 °F 93% 29.83 in 10.0 mi WNW 5.8 mph - N/A   Overcast
11:41 PM 30.2 °F 23.4 °F 28.4 °F 93% 29.83 in 10.0 mi WNW 6.9 mph - N/A   Overcast